Tracking 33197 objects as of 18-Feb-2026
HD Live streaming from Space Station
objects crossing your sky now

CZ-4 DEB

Track CZ-4 DEB now!
10-day predictions


NORAD ID: 20866
Int'l Code: 1990-081AE
Perigee: 820.0 km
Apogee: 918.9 km
Inclination: 98.9 °
Period: 102.2 minutes
Semi major axis: 7240 km
RCS: 0.0056 m2 (small)
Launch date: September 3, 1990
Source: People's Republic of China (PRC)
Launch site: Taiyaun Space Center, China (TSC)

Note: This is SATELLITE DEBRIS
Your satellite tracking list
Your tracking list is empty




NASA's NSSDC Master Catalog

Two Line Element Set (TLE):
1 20866U 90081AE  26049.41657295  .00000617  00000-0  37330-3 0  9993
2 20866  98.9299  30.3721 0068309 285.6572 228.5714 14.09149904810769
Source of the keplerian elements: AFSPC